Temp
67 68 69 68 68 67 68 67 66 65 65 65 65 65 63 63 60 59 59 61 62 66 67 64 67 69 69 70 76 74 72 71 69 69 72 71 70 65 65 67 70 72 73 73 73 74 74 74 73 73 72 72 70 70 69 69 69 69 69 69 68 68 66 67 67 66 66 67 67 67 67 66 66 66
67 68 68 69 68 69 67 66 66 65 66 66 65 65 65 65 62 61 59 61 64 64 68 68 66 68 68 70 74 75 71 68 70 72 73 71 71 64 63 65 67 69 69 70 72 74 74 74 73 73 73 72 70 70 70 69 69 69 69 68 66 65 66 67 66 66 66 67 67 67 67 65 65 66
67 67 67 68 68 69 68 68 66 66 66 66 66 66 66 65 64 63 62 59 65 68 63 66 69 68 68 68 68 72 73 69 70 73 72 71 67 64 64 63 65 65 65 67 68 70 73 73 73 73 73 72 71 70 70 70 70 69 67 64 63 64 66 66 66 66 66 67 67 67 67 66 66 66
68 67 68 69 68 69 69 68 67 66 67 67 66 66 66 66 66 64 62 61 62 66 65 65 68 69 69 69 67 70 72 71 68 74 71 70 64 67 67 62 63 63 63 64 64 65 69 72 72 73 73 72 71 70 70 69 69 66 63 62 62 64 66 66 66 66 67 67 66 66 66 66 66 66
68 68 68 69 70 70 69 68 67 66 67 67 66 67 65 64 65 65 63 61 62 65 67 66 66 69 69 68 69 68 70 70 69 69 70 68 69 69 68 65 61 61 61 61 61 61 63 67 69 70 70 69 66 66 66 64 62 62 63 63 62 62 65 66 66 66 67 67 66 66 66 65 65 66
67 66 67 68 69 69 69 69 69 68 68 67 66 66 65 64 65 65 64 63 62 62 65 65 67 67 69 66 69 67 68 68 71 69 69 70 70 70 68 65 63 59 59 59 59 59 60 61 62 65 68 65 59 59 60 59 60 62 62 61 61 60 61 65 66 66 66 66 66 66 66 65 65 64
67 66 66 67 68 69 68 69 69 69 68 68 67 66 66 65 65 65 65 63 62 62 63 66 65 66 67 67 66 67 69 70 71 70 69 69 70 70 68 64 61 56 57 56 56 57 57 58 59 61 65 60 58 59 58 57 57 58 58 58 58 58 59 62 65 66 66 66 66 66 65 64 63 62
66 66 65 66 66 67 67 68 68 69 69 67 66 66 66 66 66 66 65 65 64 64 63 65 65 66 65 66 68 68 68 68 69 70 68 70 70 70 67 62 59 55 55 55 55 56 56 57 57 58 59 58 58 57 57 56 56 56 57 57 57 57 58 59 61 64 65 65 65 65 63 62 62 62
67 66 66 66 67 67 66 67 67 68 67 67 67 66 67 65 66 66 65 65 65 63 63 64 66 66 66 66 67 67 65 66 68 68 67 69 70 67 65 63 58 54 54 54 54 55 55 56 56 57 57 57 57 56 56 56 56 56 56 56 56 56 57 57 57 59 60 59 59 58 57 59 61 61
67 66 66 67 67 67 65 66 67 68 68 68 67 66 67 66 66 65 64 64 64 63 62 63 63 65 64 63 65 66 66 65 65 65 67 69 67 64 60 58 59 59 58 56 55 54 55 54 55 56 57 57 56 56 56 55 55 55 55 55 55 55 56 56 55 55 55 54 54 54 55 57 60 60
67 67 67 67 67 66 66 66 66 67 67 68 67 66 66 66 65 64 64 64 64 63 63 63 64 64 64 64 63 66 66 66 67 65 63 64 65 63 60 59 61 63 61 58 56 57 57 57 59 55 57 56 56 56 55 55 55 55 55 54 54 55 55 54 53 53 52 53 53 52 53 55 56 58
66 67 67 67 67 67 67 66 66 67 67 68 67 67 66 65 64 64 64 64 63 62 63 62 62 63 63 63 65 65 65 64 64 65 65 62 61 60 61 61 61 62 59 57 57 57 57 56 56 56 56 57 57 56 56 56 56 56 55 55 54 54 53 53 53 52 52 52 52 52 51 51 52 55
66 67 67 67 67 68 69 68 67 67 67 65 65 66 67 65 64 64 63 62 62 63 62 62 63 62 62 62 62 63 62 62 62 65 66 63 63 62 61 62 65 63 60 60 58 57 57 57 59 60 60 58 58 58 57 57 57 56 56 55 54 53 52 52 52 52 52 52 52 52 51 50 50 51
65 66 66 67 68 67 67 66 63 61 61 63 64 65 64 64 64 63 62 62 62 62 61 61 61 60 61 62 63 63 64 65 66 64 64 62 63 62 61 61 63 64 63 60 58 61 62 59 58 60 59 60 60 60 60 59 58 56 54 54 53 52 52 51 52 52 52 52 52 52 51 50 50 50
63 64 66 65 67 68 67 67 62 59 59 60 58 57 62 66 65 63 62 61 62 61 60 61 62 61 61 62 63 64 64 64 64 64 65 64 63 60 58 56 60 65 64 61 60 60 64 62 58 59 60 59 61 61 61 57 55 54 54 53 53 52 52 51 51 51 51 51 51 51 50 50 49 49
62 63 63 64 65 66 67 67 67 63 60 58 58 56 54 56 58 60 64 62 61 61 60 61 62 62 62 63 64 64 63 63 64 64 64 65 63 61 60 59 58 63 66 62 60 59 64 65 61 61 60 60 62 63 58 53 54 53 53 53 52 52 51 51 51 51 50 50 50 50 49 49 49 48
61 62 62 63 64 65 68 68 67 66 66 61 59 59 57 55 54 50 51 56 65 64 63 62 62 62 63 63 64 65 64 65 64 64 63 64 65 64 62 61 62 63 66 63 60 59 62 64 62 61 61 61 62 61 55 54 53 53 52 52 51 51 51 51 50 50 50 50 49 49 49 48 48 48
61 61 61 62 62 63 64 64 64 65 65 65 66 64 62 62 62 56 51 51 55 62 65 64 62 65 66 64 65 67 64 64 64 64 63 65 66 65 64 65 65 66 68 64 62 59 61 65 63 62 62 63 63 61 56 53 53 52 52 51 51 51 50 50 50 50 50 49 49 49 48 48 47 47
61 61 61 61 62 62 63 64 65 64 64 65 65 65 64 63 64 64 61 60 61 62 64 64 64 65 66 66 67 68 66 67 68 68 67 68 67 66 68 67 66 66 68 66 64 58 61 65 64 63 63 64 63 60 54 53 52 52 51 51 51 50 50 50 50 49 49 49 49 48 48 47 46 46
61 62 61 61 61 62 62 63 56 60 64 63 62 62 64 64 64 65 65 58 59 65 65 64 64 65 67 62 66 66 66 67 68 69 68 68 69 68 66 63 63 63 67 68 65 61 61 66 64 63 65 64 58 57 56 53 53 52 51 51 50 50 50 49 49 49 49 48 48 48 47 46 46 46
61 61 62 62 61 61 62 59 52 51 57 61 61 61 61 63 64 64 66 56 52 53 54 54 54 55 54 53 53 53 56 64 65 66 63 62 66 67 64 61 61 62 65 67 68 64 61 65 65 63 63 60 56 56 55 54 52 52 51 51 50 50 49 49 49 48 48 48 48 48 47 46 46 47
61 62 64 64 62 61 62 56 51 50 57 61 61 60 60 61 62 64 66 65 59 51 51 50 50 51 51 51 51 53 51 53 61 66 62 63 63 66 65 60 61 63 65 66 69 64 63 65 65 62 60 58 58 57 55 54 53 50 50 50 50 49 49 49 48 48 48 48 47 47 47 46 46 47
60 61 61 62 61 62 61 53 51 49 57 61 61 60 60 60 61 63 65 63 62 59 57 58 58 55 55 59 59 61 52 51 59 66 67 65 63 66 66 63 62 60 62 67 70 64 63 64 64 62 57 56 57 58 55 53 53 53 53 52 51 49 49 49 49 48 47 47 47 47 46 46 47 50
57 59 60 60 54 51 51 51 49 48 49 59 61 61 60 60 60 64 66 65 63 62 61 60 61 62 62 62 63 64 61 59 63 64 68 65 66 69 67 65 64 62 63 67 69 65 66 67 64 64 63 58 53 54 55 54 54 54 54 53 53 50 49 49 48 48 47 47 46 46 46 46 48 53
54 57 59 61 58 51 49 50 50 48 47 52 60 60 61 62 63 62 65 66 64 63 63 62 62 62 62 63 63 63 63 62 62 64 63 66 67 71 69 67 65 66 67 68 63 69 64 67 64 64 63 61 56 53 55 54 54 55 55 55 54 51 51 50 50 48 47 46 46 46 45 46 48 53
55 57 58 60 58 51 49 48 49 48 48 46 55 59 53 52 51 61 65 65 65 64 64 62 61 61 61 62 62 62 63 63 63 64 65 65 66 70 73 71 68 67 66 69 59 70 66 66 66 64 63 59 55 56 53 53 54 55 57 57 56 52 53 53 52 50 49 48 47 46 47 46 47 48
53 57 58 60 58 51 49 48 48 49 48 51 55 51 50 49 48 51 60 64 64 62 62 63 61 61 61 61 61 61 61 63 63 64 65 65 68 70 71 70 72 72 71 70 69 71 69 68 67 66 64 61 57 55 54 52 53 57 56 57 56 55 56 55 54 52 51 50 51 47 46 45 46 47
54 55 57 58 52 50 49 47 47 48 50 54 51 49 50 50 51 57 59 60 62 61 61 61 61 61 62 61 62 61 63 63 64 64 65 65 66 66 65 65 65 69 71 71 71 72 70 69 67 69 67 62 59 55 54 56 55 55 54 57 58 57 57 57 55 54 53 53 53 50 48 47 47 47
54 52 50 50 49 49 49 46 45 47 48 48 49 49 49 54 57 57 58 59 61 60 60 61 62 62 62 62 63 64 64 64 64 63 64 65 64 65 65 65 63 67 70 70 72 73 70 70 70 70 67 65 62 60 59 56 55 55 56 55 55 56 57 59 57 56 54 54 55 53 51 50 49 49
48 48 48 48 47 48 48 48 49 51 52 47 47 48 50 56 58 58 59 59 59 59 59 60 60 62 63 62 63 65 64 64 63 63 63 63 63 63 63 63 64 64 68 70 71 73 71 71 71 71 68 66 66 63 61 58 56 57 56 56 57 57 58 59 59 59 57 56 56 55 55 54 54 52
49 49 50 51 49 50 50 49 50 51 52 50 50 50 54 56 58 58 59 59 59 59 59 58 60 62 64 63 61 62 63 63 63 63 62 62 62 62 63 62 61 62 65 66 66 72 72 71 72 72 68 66 66 66 63 61 59 58 58 59 57 53 56 58 59 59 59 58 58 58 57 56 57 56
50 52 50 49 52 54 54 54 55 55 56 55 53 52 54 56 58 60 61 61 60 59 59 60 61 61 62 62 62 62 62 62 62 63 62 62 61 61 62 61 60 61 61 63 65 67 67 72 73 73 70 68 66 66 65 64 61 60 59 60 59 59 58 57 57 58 59 59 58 58 58 57 56 57
50 51 51 51 52 53 53 54 55 57 57 57 57 55 55 56 57 58 59 58 58 57 57 58 60 61 61 61 61 61 62 62 62 63 63 62 62 61 62 61 60 60 59 60 62 64 65 70 73 73 70 68 69 68 65 62 62 62 61 61 61 60 59 59 59 59 60 58 57 57 57 58 58 58
49 49 49 51 52 52 53 54 55 56 57 58 58 57 53 56 57 58 58 59 58 58 56 58 59 61 61 60 60 61 61 62 62 61 57 62 62 61 61 61 61 61 60 60 60 61 62 67 70 71 69 68 69 70 69 66 63 63 63 64 63 61 60 61 61 61 60 59 58 57 57 58 59 60
48 49 49 50 52 53 54 54 55 55 57 57 59 59 57 57 57 55 57 58 57 56 56 57 59 60 59 60 60 60 61 61 62 62 60 62 62 61 61 61 61 60 60 59 60 64 62 65 68 67 65 65 65 64 62 67 67 64 65 64 65 64 61 62 62 62 61 60 61 58 58 59 60 62
47 50 50 51 53 54 54 55 55 56 57 59 60 60 57 57 57 56 57 57 58 57 57 58 58 60 60 61 60 61 60 59 61 61 61 62 61 61 62 62 61 61 62 61 60 65 67 66 67 66 64 63 63 61 65 58 63 70 65 64 66 65 64 64 64 64 62 62 62 61 59 59 60 62
48 50 51 52 54 55 55 56 57 57 59 60 61 61 58 57 56 57 58 56 58 57 58 58 59 60 60 60 59 57 58 59 60 60 60 62 61 61 61 59 59 61 61 60 61 64 68 66 67 66 64 62 62 60 61 65 59 61 71 67 65 63 63 63 64 63 64 64 63 63 62 62 62 64
49 51 52 53 55 56 56 56 57 57 60 61 61 60 60 60 59 59 59 58 57 57 57 58 58 60 61 59 60 60 60 60 60 60 59 61 60 61 61 60 60 60 60 61 61 62 67 66 63 65 66 63 61 61 59 60 65 63 61 69 65 63 63 62 60 60 62 65 64 65 64 63 64 66
51 51 52 54 55 56 56 56 57 58 60 61 60 60 61 61 60 59 58 57 58 59 59 59 60 59 60 61 60 60 59 59 60 59 60 60 61 61 60 60 60 61 60 60 60 63 65 66 65 66 67 65 64 64 64 59 54 64 61 57 66 64 64 64 62 60 60 61 63 65 67 64 56 50
52 53 54 55 56 56 57 57 58 60 61 61 61 62 61 59 60 59 58 57 58 59 60 60 60 59 61 61 60 61 61 60 60 60 59 60 60 60 60 60 60 61 61 60 60 63 65 65 67 66 66 63 65 66 65 61 57 65 67 60 56 65 66 65 63 62 61 61 63 61 61 63 63 64
52 53 54 55 56 57 57 59 61 62 62 62 62 59 62 61 60 60 60 59 55 60 60 60 61 61 62 62 61 61 60 59 60 60 59 59 56 57 56 51 59 60 60 60 61 62 64 66 59 51 59 63 63 65 61 53 54 55 58 63 52 54 60 61 66 64 61 60 60 59 58 58 61 61
49 53 55 56 56 58 59 60 62 62 61 61 61 60 61 61 59 55 57 56 60 60 61 61 61 60 61 62 61 59 59 59 59 59 58 59 58 56 53 56 60 60 60 59 60 61 62 60 57 61 63 62 60 55 50 52 51 48 52 54 58 51 50 55 57 58 64 63 60 52 53 57 60 57
43 43 45 47 50 53 57 60 61 61 60 60 60 61 60 59 59 58 59 59 60 59 60 61 61 61 62 61 61 61 60 59 60 59 59 59 59 58 58 59 60 60 60 60 61 61 61 62 61 61 62 61 59 56 51 52 56 55 53 50 53 57 55 49 50 51 53 55 56 59 59 51 44 45
40 41 42 44 46 47 49 53 57 59 60 60 59 60 59 58 59 59 60 60 60 60 60 61 60 61 61 61 61 61 61 60 60 60 60 58 59 59 59 59 58 60 59 60 60 60 61 61 61 61 60 59 60 57 54 54 53 52 54 50 50 56 51 49 56 51 47 48 48 51 52 53 55 54
39 39 40 42 43 44 45 48 50 54 57 58 59 59 57 58 57 59 60 60 60 61 59 60 60 61 61 60 60 59 60 55 58 59 59 58 58 57 57 59 57 59 59 60 60 60 60 60 61 61 61 59 60 57 54 51 50 50 54 55 54 51 49 47 47 49 50 55 52 43 46 48 47 46
MSLP
1010.23 1010.15 1010.15 1010.23 1010.27 1010.31 1010.31 1010.43 1010.63 1010.75 1010.91 1010.91 1010.87 1010.99 1011.39 1011.63 1011.99 1011.95 1011.71 1011.19 1011.15 1010.51 1010.15 1010.71 1010.75 1010.71 1011.23 1011.55 1010.31 1009.83 1009.79 1009.79 1010.15 1010.63 1010.75 1010.91 1011.15 1011.47 1011.75 1011.95 1012.11 1012.35 1012.67 1013.15 1013.39 1013.71 1013.99 1014.39 1014.79 1015.07 1015.27 1015.39 1015.51 1015.75 1016.07 1016.27 1016.43 1016.59 1016.79 1016.99 1017.23 1017.47 1017.75 1018.07 1018.27 1018.51 1018.67 1018.79 1018.95 1019.11 1019.27 1019.43 1019.59 1019.67
1009.99 1009.83 1009.75 1009.75 1009.95 1009.87 1009.99 1010.07 1010.07 1010.27 1010.35 1010.43 1010.43 1010.47 1010.55 1010.71 1011.23 1011.19 1011.59 1010.99 1010.31 1010.39 1009.87 1009.79 1010.31 1010.23 1010.79 1010.99 1010.19 1009.59 1009.67 1009.51 1009.71 1010.03 1010.23 1010.51 1010.79 1011.19 1011.59 1011.83 1012.03 1012.31 1012.71 1013.15 1013.39 1013.55 1013.91 1014.35 1014.75 1015.03 1015.19 1015.31 1015.51 1015.71 1015.91 1016.11 1016.35 1016.51 1016.71 1016.95 1017.23 1017.47 1017.75 1018.03 1018.31 1018.55 1018.71 1018.83 1018.99 1019.19 1019.35 1019.55 1019.67 1019.75
1009.79 1009.67 1009.55 1009.39 1009.35 1009.31 1009.43 1009.55 1009.67 1009.71 1009.79 1009.83 1009.91 1009.99 1009.99 1010.03 1010.23 1010.67 1010.95 1011.35 1009.91 1009.51 1010.07 1009.83 1009.67 1010.03 1010.19 1010.59 1011.19 1010.43 1009.79 1009.63 1009.63 1009.79 1009.99 1010.19 1010.51 1011.03 1011.47 1011.79 1012.03 1012.35 1012.75 1013.11 1013.31 1013.55 1013.95 1014.31 1014.63 1014.95 1015.07 1015.23 1015.43 1015.59 1015.75 1015.95 1016.19 1016.43 1016.67 1016.99 1017.27 1017.47 1017.71 1018.03 1018.31 1018.59 1018.71 1018.87 1019.07 1019.23 1019.35 1019.51 1019.67 1019.83
1009.59 1009.39 1009.27 1009.07 1008.95 1008.83 1008.87 1009.03 1009.23 1009.35 1009.35 1009.43 1009.55 1009.55 1009.59 1009.59 1009.67 1010.07 1010.59 1010.83 1010.43 1009.55 1009.51 1009.67 1009.59 1009.59 1009.79 1010.19 1011.15 1010.67 1010.03 1009.71 1009.67 1009.71 1009.79 1010.03 1010.55 1011.07 1011.51 1011.83 1012.15 1012.43 1012.79 1013.03 1013.27 1013.67 1014.03 1014.31 1014.55 1014.79 1014.99 1015.15 1015.31 1015.55 1015.71 1015.95 1016.15 1016.43 1016.75 1017.03 1017.27 1017.47 1017.67 1017.99 1018.31 1018.55 1018.71 1018.87 1019.07 1019.27 1019.43 1019.59 1019.71 1019.83
1009.51 1009.31 1009.07 1008.79 1008.59 1008.39 1008.47 1008.59 1008.71 1008.87 1008.95 1009.07 1009.19 1009.11 1009.35 1009.51 1009.51 1009.87 1010.27 1010.51 1010.31 1009.71 1009.19 1009.27 1009.35 1009.31 1009.55 1010.11 1010.67 1010.67 1010.19 1010.07 1010.19 1009.87 1009.99 1010.27 1010.67 1011.11 1011.59 1011.99 1012.19 1012.59 1012.87 1013.07 1013.39 1013.79 1014.07 1014.27 1014.43 1014.67 1014.91 1015.07 1015.27 1015.51 1015.71 1015.95 1016.19 1016.51 1016.79 1017.03 1017.27 1017.47 1017.67 1017.91 1018.23 1018.47 1018.67 1018.87 1019.11 1019.27 1019.47 1019.63 1019.75 1019.87
1009.39 1009.19 1008.99 1008.67 1008.39 1008.15 1008.19 1008.11 1008.19 1008.35 1008.47 1008.63 1008.91 1008.87 1009.03 1009.27 1009.35 1009.27 1009.67 1009.79 1009.95 1009.75 1009.23 1009.23 1009.03 1009.31 1009.27 1010.19 1010.47 1010.83 1010.75 1010.51 1010.35 1010.23 1010.39 1010.59 1010.79 1011.19 1011.75 1012.23 1012.51 1012.75 1013.03 1013.31 1013.59 1013.87 1014.07 1014.27 1014.39 1014.59 1014.79 1015.03 1015.31 1015.51 1015.79 1016.03 1016.27 1016.55 1016.79 1017.03 1017.27 1017.47 1017.67 1017.87 1018.15 1018.43 1018.67 1018.87 1019.11 1019.31 1019.47 1019.67 1019.79 1019.95
1009.03 1008.99 1008.87 1008.63 1008.35 1008.11 1008.03 1007.87 1007.75 1007.83 1008.03 1008.15 1008.35 1008.43 1008.55 1008.79 1008.83 1008.91 1008.91 1009.27 1009.55 1009.47 1009.23 1008.83 1008.99 1009.07 1009.19 1009.71 1010.07 1010.11 1010.63 1010.47 1010.31 1010.43 1010.59 1010.83 1011.03 1011.35 1011.79 1012.39 1012.91 1013.15 1013.31 1013.63 1013.87 1013.99 1014.15 1014.31 1014.43 1014.55 1014.71 1015.03 1015.27 1015.51 1015.83 1016.07 1016.27 1016.55 1016.79 1017.03 1017.31 1017.51 1017.71 1017.87 1018.11 1018.35 1018.63 1018.87 1019.11 1019.31 1019.47 1019.71 1019.91 1020.07
1008.63 1008.67 1008.67 1008.55 1008.35 1008.07 1007.95 1007.71 1007.55 1007.47 1007.55 1007.79 1007.99 1008.11 1008.15 1008.23 1008.35 1008.39 1008.51 1008.55 1008.87 1008.91 1009.27 1008.91 1008.75 1008.75 1009.07 1009.55 1009.67 1009.55 1010.27 1010.59 1010.55 1010.51 1010.71 1010.75 1011.11 1011.47 1011.99 1012.59 1013.19 1013.67 1013.83 1013.99 1014.07 1014.15 1014.27 1014.43 1014.51 1014.59 1014.75 1015.03 1015.27 1015.51 1015.83 1016.07 1016.27 1016.55 1016.79 1017.03 1017.27 1017.55 1017.71 1017.91 1018.11 1018.31 1018.59 1018.87 1019.11 1019.27 1019.51 1019.79 1019.99 1020.11
1008.23 1008.23 1008.23 1008.15 1008.15 1007.99 1007.87 1007.59 1007.39 1007.15 1007.27 1007.39 1007.55 1007.71 1007.79 1007.91 1007.95 1008.03 1008.15 1008.23 1008.39 1008.87 1009.03 1008.87 1008.59 1008.63 1008.95 1009.31 1009.47 1009.71 1010.39 1010.71 1010.51 1010.47 1010.95 1010.87 1011.11 1011.71 1012.31 1012.83 1013.47 1013.91 1014.23 1014.39 1014.43 1014.39 1014.47 1014.55 1014.59 1014.67 1014.79 1014.99 1015.23 1015.51 1015.79 1016.07 1016.27 1016.51 1016.75 1016.99 1017.27 1017.55 1017.75 1017.91 1018.11 1018.35 1018.59 1018.91 1019.15 1019.39 1019.67 1019.87 1019.99 1020.15
1007.71 1007.83 1007.87 1007.75 1007.71 1007.71 1007.67 1007.47 1007.19 1006.95 1006.83 1006.91 1007.15 1007.35 1007.47 1007.55 1007.67 1007.87 1007.95 1008.03 1008.35 1008.59 1008.87 1008.95 1009.03 1008.83 1009.19 1009.95 1009.71 1009.47 1010.19 1010.79 1010.67 1011.03 1010.99 1010.99 1011.27 1011.91 1012.75 1013.31 1013.63 1013.87 1014.23 1014.59 1014.75 1014.71 1014.67 1014.67 1014.67 1014.75 1014.83 1014.99 1015.19 1015.47 1015.75 1016.03 1016.27 1016.51 1016.71 1016.91 1017.23 1017.55 1017.75 1017.95 1018.15 1018.35 1018.67 1018.95 1019.23 1019.51 1019.71 1019.91 1020.07 1020.19
1007.11 1007.23 1007.31 1007.35 1007.35 1007.43 1007.39 1007.31 1007.11 1006.87 1006.67 1006.67 1006.79 1006.95 1007.11 1007.15 1007.47 1007.67 1007.67 1007.83 1008.11 1008.27 1008.47 1008.63 1008.79 1008.91 1009.07 1009.27 1009.67 1009.47 1009.91 1010.27 1010.19 1010.51 1011.43 1011.71 1011.75 1011.99 1012.43 1013.27 1013.47 1013.63 1014.07 1014.43 1014.63 1014.67 1014.67 1014.67 1014.71 1014.83 1014.91 1015.07 1015.23 1015.51 1015.75 1015.99 1016.27 1016.55 1016.71 1016.91 1017.15 1017.51 1017.75 1017.99 1018.19 1018.43 1018.67 1018.95 1019.23 1019.51 1019.75 1019.95 1020.11 1020.23
1006.71 1006.71 1006.79 1006.87 1006.95 1007.03 1007.03 1006.99 1006.87 1006.67 1006.47 1006.31 1006.43 1006.47 1006.67 1006.91 1007.23 1007.43 1007.47 1007.63 1007.83 1008.11 1008.27 1008.43 1008.59 1008.59 1008.99 1009.15 1009.15 1009.39 1010.03 1010.47 1010.43 1010.31 1010.71 1011.39 1011.91 1012.27 1012.47 1012.55 1012.95 1013.39 1013.83 1014.31 1014.63 1014.79 1014.79 1014.83 1014.91 1014.95 1015.07 1015.15 1015.31 1015.51 1015.79 1015.99 1016.27 1016.55 1016.75 1016.95 1017.15 1017.43 1017.79 1018.03 1018.23 1018.47 1018.67 1018.95 1019.19 1019.47 1019.71 1019.95 1020.11 1020.27
1006.51 1006.39 1006.39 1006.43 1006.51 1006.55 1006.59 1006.59 1006.51 1006.39 1006.39 1006.59 1006.59 1006.31 1006.27 1006.55 1006.91 1007.11 1007.31 1007.63 1007.95 1007.83 1007.99 1008.31 1008.39 1008.63 1008.87 1009.11 1009.43 1009.55 1009.75 1009.91 1009.91 1009.91 1010.31 1011.23 1011.59 1011.91 1012.47 1012.79 1012.71 1012.87 1013.35 1013.87 1014.39 1014.71 1014.75 1014.83 1014.91 1014.95 1015.19 1015.35 1015.39 1015.55 1015.71 1016.03 1016.19 1016.47 1016.71 1016.91 1017.15 1017.43 1017.75 1018.03 1018.23 1018.47 1018.71 1018.95 1019.15 1019.43 1019.67 1019.91 1020.11 1020.31
1006.47 1006.19 1006.03 1005.99 1006.07 1006.19 1006.27 1006.31 1006.35 1006.31 1006.03 1006.03 1006.27 1006.27 1006.39 1006.27 1006.43 1006.79 1007.11 1007.35 1007.47 1007.59 1007.79 1008.03 1008.19 1008.59 1008.67 1008.67 1008.91 1009.07 1008.95 1008.99 1009.35 1009.91 1010.47 1011.11 1011.55 1011.91 1012.39 1012.67 1012.71 1012.75 1012.91 1013.43 1014.03 1014.19 1014.35 1014.59 1014.83 1014.87 1015.07 1015.31 1015.39 1015.55 1015.71 1015.91 1016.15 1016.43 1016.67 1016.87 1017.15 1017.39 1017.71 1017.99 1018.23 1018.47 1018.67 1018.91 1019.15 1019.35 1019.59 1019.83 1020.07 1020.27
1006.47 1006.23 1006.03 1005.83 1005.75 1005.79 1005.91 1005.99 1006.03 1006.11 1005.99 1005.67 1005.67 1005.79 1005.75 1005.83 1005.87 1006.35 1006.79 1006.99 1007.11 1007.35 1007.63 1007.51 1007.71 1007.87 1008.11 1008.15 1008.19 1008.47 1008.67 1008.91 1009.23 1009.51 1009.83 1010.47 1011.11 1011.63 1012.11 1012.79 1012.79 1012.55 1012.51 1013.03 1013.51 1013.87 1013.83 1014.07 1014.59 1014.75 1014.91 1015.11 1015.27 1015.39 1015.51 1015.75 1016.07 1016.35 1016.59 1016.83 1017.11 1017.39 1017.63 1017.95 1018.23 1018.43 1018.67 1018.91 1019.15 1019.35 1019.55 1019.79 1019.99 1020.23
1006.15 1005.99 1005.87 1005.71 1005.59 1005.51 1005.51 1005.63 1005.67 1005.67 1005.67 1005.55 1005.31 1005.43 1005.59 1005.55 1005.35 1005.39 1005.83 1006.39 1006.83 1006.99 1007.23 1007.35 1007.27 1007.35 1007.39 1007.39 1007.63 1008.07 1008.43 1008.71 1009.07 1009.35 1009.63 1009.91 1010.35 1011.15 1011.55 1011.67 1011.99 1011.75 1011.99 1012.59 1013.11 1013.59 1013.51 1013.67 1014.07 1014.39 1014.67 1014.91 1014.99 1015.11 1015.39 1015.71 1015.99 1016.23 1016.51 1016.79 1016.99 1017.23 1017.55 1017.87 1018.19 1018.43 1018.67 1018.91 1019.15 1019.39 1019.59 1019.79 1019.99 1020.23
1005.91 1005.79 1005.67 1005.59 1005.47 1005.31 1005.23 1005.27 1005.39 1005.43 1005.51 1005.43 1005.15 1004.91 1005.11 1005.27 1005.27 1005.31 1005.35 1005.39 1005.71 1006.07 1006.47 1006.71 1006.95 1006.91 1006.87 1007.03 1007.23 1007.39 1007.59 1007.71 1008.39 1008.95 1009.39 1009.63 1009.79 1010.23 1010.67 1011.03 1011.35 1011.59 1011.59 1012.23 1012.75 1013.23 1013.23 1013.35 1013.75 1014.03 1014.31 1014.59 1014.75 1014.99 1015.35 1015.67 1015.91 1016.15 1016.47 1016.75 1017.03 1017.23 1017.47 1017.79 1018.11 1018.39 1018.67 1018.91 1019.15 1019.43 1019.67 1019.83 1020.03 1020.23
1005.47 1005.43 1005.39 1005.31 1005.23 1005.15 1005.11 1005.07 1005.15 1005.23 1005.19 1005.11 1004.99 1004.79 1004.79 1004.95 1004.95 1005.03 1005.15 1005.23 1005.35 1005.43 1005.71 1006.07 1006.39 1006.15 1006.11 1006.31 1006.35 1006.43 1006.79 1007.55 1007.91 1008.15 1008.63 1008.71 1009.19 1009.55 1009.87 1010.07 1010.47 1010.87 1011.03 1011.55 1012.03 1012.99 1013.11 1013.03 1013.43 1013.71 1013.91 1014.15 1014.47 1014.71 1015.11 1015.51 1015.83 1016.11 1016.39 1016.71 1017.03 1017.27 1017.51 1017.79 1018.07 1018.35 1018.63 1018.87 1019.15 1019.43 1019.67 1019.91 1020.11 1020.31
1004.87 1004.91 1004.91 1004.87 1004.83 1004.83 1004.79 1004.75 1004.79 1004.95 1005.03 1004.91 1004.63 1004.47 1004.47 1004.47 1004.39 1004.47 1004.75 1004.99 1005.15 1005.27 1005.35 1005.51 1005.59 1005.55 1005.51 1005.55 1005.71 1006.07 1006.63 1006.79 1006.67 1006.59 1006.99 1007.47 1008.23 1009.07 1009.35 1009.91 1010.23 1010.75 1010.87 1011.23 1011.59 1012.59 1012.63 1012.63 1013.07 1013.27 1013.51 1013.83 1014.19 1014.51 1015.03 1015.35 1015.71 1016.03 1016.39 1016.67 1017.03 1017.27 1017.55 1017.83 1018.07 1018.35 1018.63 1018.87 1019.15 1019.43 1019.71 1019.95 1020.15 1020.39
1004.23 1004.31 1004.39 1004.39 1004.35 1004.31 1004.35 1004.31 1004.43 1004.59 1004.79 1004.83 1004.83 1004.71 1004.43 1004.15 1003.95 1003.91 1003.87 1004.07 1004.31 1004.55 1004.79 1004.91 1004.99 1005.15 1005.27 1005.23 1005.39 1005.67 1006.39 1006.47 1006.27 1006.55 1007.07 1007.55 1008.07 1008.67 1009.35 1010.11 1010.39 1010.79 1010.79 1010.71 1011.15 1011.95 1012.39 1012.11 1012.55 1012.91 1013.11 1013.55 1014.27 1014.67 1015.07 1015.31 1015.59 1015.99 1016.31 1016.63 1016.95 1017.23 1017.51 1017.83 1018.07 1018.35 1018.59 1018.87 1019.11 1019.39 1019.71 1019.95 1020.19 1020.43
1003.51 1003.59 1003.67 1003.79 1003.79 1003.75 1003.75 1003.87 1004.07 1004.23 1004.43 1004.59 1004.55 1004.63 1004.59 1004.23 1003.87 1003.71 1003.55 1003.67 1003.95 1004.19 1004.39 1004.51 1004.71 1004.91 1005.19 1005.51 1005.51 1005.47 1005.51 1005.87 1006.07 1006.83 1007.79 1008.43 1008.07 1008.43 1009.19 1009.95 1010.27 1010.55 1010.47 1010.43 1010.47 1011.19 1011.99 1011.91 1012.03 1012.71 1013.07 1013.55 1014.31 1014.83 1015.19 1015.55 1015.75 1015.95 1016.27 1016.59 1016.91 1017.23 1017.43 1017.75 1018.07 1018.35 1018.59 1018.87 1019.11 1019.35 1019.63 1019.91 1020.15 1020.43
1002.79 1002.79 1002.87 1003.03 1003.11 1003.11 1003.15 1003.39 1003.63 1003.79 1004.03 1004.23 1004.27 1004.27 1004.39 1004.15 1003.87 1003.51 1003.27 1003.43 1003.75 1003.95 1004.15 1004.39 1004.59 1004.67 1004.83 1005.07 1005.43 1005.39 1005.63 1005.67 1005.91 1006.35 1007.35 1007.67 1007.91 1007.95 1008.27 1009.35 1009.67 1009.99 1010.11 1009.99 1009.83 1010.87 1011.39 1011.47 1011.67 1012.55 1013.31 1013.91 1014.35 1014.71 1015.27 1015.63 1016.03 1016.35 1016.51 1016.67 1016.91 1017.23 1017.43 1017.67 1018.03 1018.31 1018.55 1018.79 1018.99 1019.27 1019.51 1019.83 1020.11 1020.39
1002.27 1002.15 1002.23 1002.31 1002.35 1002.43 1002.55 1002.87 1003.03 1003.27 1003.47 1003.71 1003.95 1004.07 1004.07 1003.99 1003.71 1003.19 1003.11 1003.39 1003.59 1003.87 1004.31 1004.55 1004.51 1004.75 1004.79 1004.87 1005.07 1005.11 1005.63 1006.03 1006.07 1005.99 1005.95 1006.55 1007.35 1007.55 1007.91 1008.67 1009.31 1010.19 1010.19 1009.51 1009.31 1010.43 1011.03 1011.23 1011.47 1011.87 1013.35 1014.19 1014.43 1014.63 1015.23 1015.75 1016.11 1016.39 1016.63 1016.95 1017.11 1017.27 1017.47 1017.59 1017.91 1018.23 1018.47 1018.71 1018.99 1019.23 1019.51 1019.79 1020.03 1020.27
1001.83 1001.63 1001.55 1001.55 1001.71 1001.91 1002.19 1002.35 1002.55 1002.79 1002.95 1003.11 1003.35 1003.67 1003.83 1003.63 1003.31 1002.91 1002.87 1002.91 1003.35 1003.51 1003.59 1003.87 1004.07 1004.15 1004.31 1004.43 1004.55 1004.63 1005.07 1005.47 1005.79 1005.79 1005.99 1006.27 1006.79 1006.75 1007.23 1007.87 1008.15 1008.71 1008.95 1008.87 1008.79 1009.71 1010.15 1010.35 1011.15 1011.27 1011.67 1012.87 1014.39 1015.07 1015.31 1015.75 1016.07 1016.27 1016.47 1016.83 1017.11 1017.43 1017.63 1017.71 1017.91 1018.11 1018.39 1018.71 1018.91 1019.15 1019.39 1019.59 1019.71 1019.91
1001.27 1001.15 1000.87 1000.75 1000.83 1001.15 1001.51 1001.79 1002.11 1002.55 1002.63 1002.63 1002.75 1003.03 1003.15 1003.03 1002.79 1002.75 1002.79 1002.67 1002.75 1003.11 1003.11 1003.35 1003.63 1003.83 1004.03 1004.19 1004.39 1004.67 1004.95 1005.27 1005.55 1005.87 1006.07 1006.15 1006.15 1006.07 1006.51 1007.19 1007.75 1007.99 1007.95 1007.91 1008.15 1008.99 1009.79 1009.87 1010.71 1011.15 1011.67 1012.11 1013.23 1014.55 1015.15 1015.59 1015.95 1016.11 1016.27 1016.47 1016.83 1017.35 1017.59 1017.83 1017.95 1018.27 1018.51 1018.63 1018.79 1019.03 1019.27 1019.39 1019.47 1019.47
1000.15 1000.03 1000.19 1000.11 1000.15 1000.39 1000.79 1001.15 1001.51 1001.95 1002.23 1002.39 1002.39 1002.39 1002.67 1002.75 1002.71 1002.63 1002.59 1002.51 1002.47 1002.59 1002.75 1003.03 1003.31 1003.51 1003.75 1003.95 1004.11 1004.39 1004.59 1004.71 1004.95 1005.39 1005.67 1005.87 1006.11 1005.79 1005.39 1005.95 1006.79 1007.47 1007.67 1007.47 1007.79 1008.39 1009.03 1009.67 1009.91 1010.59 1011.19 1011.99 1013.35 1013.59 1014.79 1015.51 1015.75 1015.91 1016.15 1016.31 1016.55 1016.99 1017.23 1017.51 1017.83 1018.11 1018.43 1018.71 1018.91 1019.03 1019.11 1019.31 1019.35 1019.31
999.55 999.43 999.47 999.51 999.59 999.79 1000.07 1000.47 1000.79 1001.11 1001.55 1001.83 1001.79 1001.91 1002.39 1002.63 1002.63 1002.83 1002.71 1002.27 1002.23 1002.39 1002.51 1002.63 1002.91 1003.11 1003.35 1003.59 1003.75 1003.95 1004.23 1004.31 1004.43 1004.83 1005.27 1005.59 1005.67 1005.59 1005.31 1005.43 1005.63 1005.99 1006.23 1006.71 1007.27 1007.79 1008.31 1008.95 1009.23 1009.83 1010.59 1011.31 1012.43 1013.67 1014.11 1014.71 1015.35 1015.63 1015.95 1016.07 1016.35 1016.75 1016.95 1017.11 1017.43 1017.79 1018.11 1018.39 1018.59 1018.87 1019.11 1019.31 1019.39 1019.35
998.71 998.87 998.87 998.99 999.15 999.31 999.55 999.91 1000.23 1000.51 1000.83 1001.03 1001.19 1001.59 1001.91 1002.19 1002.47 1002.71 1002.51 1002.27 1002.07 1002.15 1002.31 1002.39 1002.55 1002.79 1002.91 1003.15 1003.35 1003.75 1003.87 1003.91 1004.11 1004.35 1004.71 1005.23 1005.51 1005.67 1005.59 1005.67 1005.75 1005.63 1005.91 1006.31 1006.79 1007.27 1007.71 1008.35 1008.99 1009.23 1009.75 1010.75 1011.71 1012.55 1013.35 1013.79 1014.27 1014.75 1015.23 1015.59 1015.91 1016.35 1016.59 1016.71 1017.03 1017.43 1017.79 1017.99 1018.27 1018.63 1018.99 1019.19 1019.27 1019.47
997.79 998.03 998.39 998.67 998.87 998.99 999.11 999.47 999.75 1000.07 1000.19 1000.39 1000.67 1001.03 1001.31 1001.71 1002.07 1002.23 1002.19 1001.99 1001.87 1001.99 1002.07 1002.11 1002.19 1002.39 1002.55 1002.59 1002.55 1002.75 1003.07 1003.35 1003.71 1004.23 1004.67 1005.11 1005.59 1005.83 1005.67 1005.55 1005.83 1005.87 1005.87 1006.11 1006.51 1006.99 1007.35 1007.71 1008.39 1008.83 1009.47 1010.19 1010.99 1011.63 1012.03 1012.83 1013.63 1014.39 1014.59 1015.11 1015.71 1015.91 1016.11 1016.27 1016.51 1016.87 1017.31 1017.59 1017.75 1018.11 1018.35 1018.51 1018.79 1018.99
997.31 997.63 997.99 998.31 998.63 998.79 998.99 999.47 999.75 999.91 999.83 999.95 1000.19 1000.43 1000.79 1001.15 1001.31 1001.43 1001.47 1001.55 1001.55 1001.63 1001.79 1001.91 1002.03 1002.03 1002.19 1002.35 1002.35 1002.39 1002.67 1003.15 1003.63 1003.99 1004.59 1005.03 1005.55 1005.79 1005.99 1005.99 1006.11 1006.39 1006.23 1005.99 1006.19 1006.59 1007.07 1007.43 1007.87 1008.39 1009.19 1009.79 1010.15 1010.95 1011.51 1012.43 1013.43 1013.63 1014.03 1014.31 1014.55 1015.43 1015.83 1015.95 1016.11 1016.35 1016.75 1017.03 1017.27 1017.55 1017.83 1018.07 1018.15 1018.47
996.99 997.23 997.55 997.83 998.19 998.43 998.59 998.75 998.95 999.31 999.27 999.55 1000.03 1000.43 1000.43 1000.51 1000.63 1000.75 1000.75 1000.79 1000.91 1001.15 1001.43 1001.59 1001.67 1001.67 1001.71 1001.99 1002.43 1002.47 1002.63 1002.95 1003.19 1003.43 1004.03 1004.67 1005.07 1005.39 1005.59 1005.67 1006.23 1006.51 1006.63 1006.43 1006.67 1006.71 1006.83 1007.19 1007.47 1007.95 1008.91 1009.51 1009.83 1010.15 1010.91 1011.51 1012.39 1013.03 1013.51 1013.63 1013.91 1014.43 1014.67 1015.31 1015.67 1015.79 1016.07 1016.47 1016.83 1017.15 1017.47 1017.75 1017.83 1017.91
996.43 996.79 997.19 997.59 997.79 998.03 998.31 998.47 998.51 998.71 998.79 998.83 999.11 999.55 999.87 1000.11 1000.07 1000.07 1000.15 1000.35 1000.47 1000.63 1000.87 1001.11 1001.27 1001.35 1001.39 1001.59 1001.75 1002.07 1002.35 1002.59 1002.83 1003.15 1003.75 1004.27 1004.79 1005.15 1005.31 1005.75 1006.31 1006.63 1007.03 1006.75 1006.99 1006.91 1006.75 1006.91 1007.27 1007.67 1008.11 1008.67 1009.35 1009.95 1010.47 1011.03 1011.59 1012.11 1012.75 1012.99 1013.31 1013.63 1014.07 1014.59 1015.03 1015.35 1015.67 1016.11 1016.59 1016.71 1016.83 1017.07 1017.31 1017.35
996.07 996.59 996.95 997.15 997.39 997.51 997.59 997.75 997.83 997.91 997.95 998.03 998.23 998.75 999.23 999.43 999.55 999.71 999.83 999.91 999.99 1000.23 1000.59 1000.83 1000.95 1000.99 1001.03 1001.15 1001.19 1001.51 1001.95 1002.23 1002.59 1002.91 1003.43 1003.87 1004.31 1004.79 1004.83 1005.19 1005.75 1006.43 1007.07 1007.03 1007.03 1007.03 1007.03 1006.91 1006.99 1007.35 1007.79 1008.15 1008.47 1009.11 1010.11 1011.11 1011.39 1011.55 1011.99 1012.43 1012.91 1013.31 1013.83 1014.15 1014.39 1014.75 1015.31 1015.95 1016.11 1016.23 1016.35 1016.43 1016.51 1016.63
995.31 995.67 996.07 996.31 996.43 996.59 996.83 997.03 997.15 997.23 997.27 997.31 997.51 997.91 998.31 998.59 998.79 998.99 999.19 999.39 999.63 999.87 1000.15 1000.39 1000.63 1000.63 1000.71 1000.99 1000.99 1001.15 1001.47 1001.87 1002.31 1002.59 1002.95 1003.51 1004.03 1004.55 1004.75 1005.11 1005.51 1005.87 1006.27 1006.67 1006.91 1007.15 1007.35 1007.19 1007.15 1007.55 1007.75 1007.95 1008.19 1008.51 1008.95 1009.83 1010.79 1011.23 1011.47 1011.79 1012.27 1012.75 1013.27 1013.63 1014.03 1014.27 1014.59 1014.79 1015.11 1015.63 1015.79 1015.83 1015.79 1015.91
994.47 994.63 995.03 995.35 995.51 995.63 995.99 996.35 996.51 996.67 996.75 996.71 996.75 996.91 997.35 997.79 997.99 998.39 998.67 998.83 999.07 999.51 999.87 1000.07 1000.11 1000.15 1000.27 1000.35 1000.71 1001.19 1001.27 1001.47 1001.83 1002.39 1002.87 1003.19 1003.67 1004.11 1004.39 1004.79 1005.27 1005.67 1006.03 1006.47 1006.83 1006.87 1007.23 1007.31 1007.27 1007.91 1008.31 1008.43 1008.75 1008.83 1008.55 1008.71 1009.67 1010.55 1011.07 1011.47 1011.59 1012.03 1012.71 1012.99 1013.31 1013.79 1014.19 1014.63 1014.75 1014.99 1015.15 1015.27 1015.31 1015.27
993.59 993.71 994.03 994.43 994.67 994.87 995.27 995.59 995.91 996.11 996.19 996.19 996.11 996.15 996.59 996.95 997.35 997.79 998.03 998.27 998.63 999.03 999.35 999.55 999.63 999.67 999.83 999.99 1000.07 1000.27 1000.71 1001.07 1001.35 1001.91 1002.51 1002.83 1003.35 1003.79 1004.11 1004.39 1004.71 1005.23 1005.59 1005.99 1006.35 1006.51 1006.83 1007.03 1007.07 1007.71 1008.47 1008.79 1009.07 1009.51 1009.39 1008.75 1008.63 1009.31 1010.43 1011.15 1011.23 1011.39 1011.87 1012.27 1012.67 1013.07 1013.59 1013.95 1014.03 1014.23 1014.59 1014.67 1014.63 1014.59
993.15 993.19 993.35 993.67 993.95 994.27 994.59 994.95 995.31 995.51 995.59 995.59 995.51 995.47 995.95 996.51 996.83 997.19 997.43 997.87 998.19 998.43 998.59 998.83 998.99 999.11 999.31 999.55 999.75 1000.11 1000.47 1000.87 1001.27 1001.59 1002.11 1002.51 1002.95 1003.51 1004.03 1004.39 1004.63 1004.91 1005.39 1005.75 1005.95 1006.15 1006.31 1006.83 1006.87 1007.27 1008.03 1008.71 1009.07 1009.51 1009.43 1008.83 1008.87 1008.71 1009.15 1010.27 1010.75 1010.87 1011.35 1011.83 1012.27 1012.79 1012.91 1013.07 1013.43 1013.55 1013.63 1013.79 1013.95 1013.87
992.51 992.59 992.87 993.07 993.39 993.71 994.19 994.59 994.91 995.07 995.03 994.91 994.91 995.07 995.39 995.79 996.27 996.63 996.99 997.43 997.67 997.87 998.03 998.19 998.35 998.55 998.75 998.99 999.43 999.87 1000.23 1000.63 1001.07 1001.67 1002.07 1002.39 1002.87 1003.31 1003.59 1003.99 1004.35 1004.67 1005.07 1005.47 1005.75 1006.11 1006.11 1006.39 1006.67 1006.87 1007.35 1008.07 1008.67 1009.07 1009.43 1009.15 1009.11 1009.03 1008.83 1009.19 1010.15 1010.63 1010.87 1011.47 1012.03 1012.39 1012.67 1012.75 1012.87 1012.87 1013.03 1013.31 1013.19 1013.07
992.11 992.15 992.43 992.75 992.99 993.39 993.91 994.27 994.51 994.55 994.47 994.31 994.43 994.63 994.91 995.19 995.59 996.03 996.47 996.83 997.07 997.23 997.43 997.63 997.83 998.03 998.35 998.59 998.87 999.39 999.95 1000.39 1000.87 1001.35 1001.79 1002.19 1002.51 1002.91 1003.23 1003.63 1004.03 1004.31 1004.75 1005.39 1005.83 1005.99 1005.95 1006.19 1006.43 1006.67 1006.95 1007.35 1007.79 1007.91 1008.11 1008.91 1009.35 1009.03 1008.95 1009.07 1009.43 1010.19 1010.63 1010.87 1011.51 1011.99 1012.31 1012.63 1012.71 1012.67 1012.71 1012.55 1012.67 1012.71
991.71 991.95 992.27 992.55 992.87 993.23 993.59 993.95 994.11 994.07 993.87 993.79 993.99 994.15 994.43 994.79 995.07 995.47 995.87 996.19 996.47 996.71 996.91 997.11 997.27 997.67 997.95 998.23 998.75 999.11 999.63 1000.19 1000.43 1000.83 1001.47 1001.99 1002.19 1002.43 1002.75 1003.11 1003.47 1003.91 1004.43 1004.91 1005.47 1005.71 1005.71 1005.83 1005.83 1006.07 1006.39 1006.67 1006.87 1007.11 1007.59 1008.23 1008.67 1008.79 1009.03 1009.35 1009.51 1009.55 1010.03 1010.51 1011.15 1011.55 1012.15 1012.23 1012.35 1012.67 1012.87 1012.75 1012.83 1012.67
991.83 992.19 992.35 992.63 992.91 993.19 993.39 993.43 993.39 993.31 993.19 993.31 993.59 993.87 994.11 994.39 994.67 994.95 995.23 995.63 995.99 996.23 996.43 996.67 996.91 997.23 997.51 997.87 998.23 998.71 999.19 999.67 1000.15 1000.59 1001.07 1001.47 1001.87 1002.15 1002.47 1002.87 1003.31 1003.63 1004.11 1004.67 1004.87 1005.19 1005.27 1005.23 1005.39 1005.67 1006.07 1006.47 1006.79 1007.15 1007.99 1008.83 1009.43 1009.47 1009.55 1009.55 1009.71 1009.71 1009.67 1009.83 1010.39 1010.99 1011.51 1011.79 1012.11 1012.51 1012.75 1012.95 1013.11 1013.11
992.31 992.31 992.51 992.79 993.03 992.87 992.87 992.79 992.59 992.59 992.75 992.99 993.35 993.67 993.83 994.03 994.23 994.51 994.91 995.27 995.55 995.71 995.95 996.23 996.51 996.79 997.11 997.43 997.91 998.47 998.95 999.39 999.87 1000.39 1000.75 1001.11 1001.67 1002.11 1002.47 1002.67 1003.03 1003.43 1003.79 1004.35 1004.67 1004.83 1004.99 1005.19 1005.51 1005.79 1006.11 1006.47 1006.91 1007.63 1008.51 1008.79 1009.31 1009.55 1009.59 1009.63 1009.87 1010.03 1010.11 1010.11 1010.19 1010.43 1010.79 1011.27 1011.91 1012.51 1012.79 1012.99 1013.03 1013.23
993.71 993.91 993.91 993.95 993.71 993.27 992.59 992.07 992.07 992.27 992.59 992.87 993.19 993.39 993.63 993.83 994.03 994.31 994.59 994.87 995.07 995.35 995.55 995.79 996.07 996.23 996.63 997.11 997.63 998.11 998.71 999.19 999.47 999.95 1000.39 1000.71 1001.07 1001.63 1002.11 1002.39 1002.63 1003.03 1003.47 1003.95 1004.43 1004.83 1005.07 1005.31 1005.59 1005.87 1006.15 1006.55 1007.11 1007.51 1008.51 1008.99 1009.03 1009.39 1009.63 1009.79 1010.11 1010.35 1010.47 1010.59 1010.67 1010.79 1010.95 1011.07 1011.23 1011.59 1012.03 1012.47 1012.95 1013.39
994.75 994.87 994.67 994.51 994.31 993.91 993.23 992.59 992.27 992.23 992.43 992.67 992.95 993.15 993.35 993.55 993.75 993.95 994.23 994.51 994.79 995.07 995.31 995.51 995.95 996.19 996.47 996.99 997.51 997.87 998.15 998.59 998.95 999.39 999.87 1000.27 1000.63 1001.03 1001.47 1001.99 1002.47 1002.95 1003.47 1004.07 1004.55 1004.87 1005.19 1005.39 1005.63 1005.87 1006.27 1006.75 1007.03 1007.67 1008.39 1008.87 1009.15 1009.23 1009.51 1009.83 1010.15 1010.43 1010.75 1010.91 1010.95 1011.11 1011.27 1011.35 1011.51 1011.59 1011.79 1011.95 1012.27 1012.55
995.23 995.27 995.15 994.95 994.63 994.23 993.79 993.47 993.15 992.91 992.63 992.59 992.79 992.95 993.11 993.31 993.43 993.59 993.83 994.11 994.47 994.79 995.07 995.35 995.59 995.87 996.23 996.79 997.39 997.75 997.91 998.23 998.63 999.07 999.47 999.95 1000.31 1000.83 1001.27 1001.75 1002.39 1002.87 1003.39 1003.75 1004.35 1004.87 1005.11 1005.39 1005.63 1005.83 1006.27 1006.55 1006.83 1007.31 1007.87 1008.23 1008.79 1009.31 1009.55 1009.71 1010.03 1010.27 1010.63 1010.87 1011.03 1011.19 1011.31 1011.43 1011.47 1011.67 1011.75 1012.11 1012.75 1012.91
Wind_Speed
7 7 8 8 7 7 6 6 7 8 8 9 7 7 8 7 8 7 6 7 6 4 8 6 5 9 9 12 11 10 8 11 13 10 9 8 9 13 15 14 14 13 15 17 17 19 16 16 16 15 14 13 16 20 20 20 19 18 17 17 16 14 14 13 13 12 11 12 12 11 12 11 10 10
7 7 7 5 6 7 7 7 8 8 10 10 10 9 9 8 9 8 9 8 5 4 4 5 5 7 9 9 6 8 7 10 13 10 8 9 8 15 14 13 13 13 14 14 17 18 18 17 16 15 16 15 19 20 21 20 19 18 18 16 13 14 15 15 13 12 12 13 12 11 11 12 10 9
8 9 10 9 8 7 7 7 8 8 8 9 9 9 8 8 9 10 9 9 4 4 5 3 4 4 3 6 7 6 5 9 11 9 7 7 11 15 11 12 12 12 14 14 14 14 16 18 17 16 16 18 20 20 21 20 19 18 16 14 14 15 16 15 14 13 13 13 12 12 10 9 9 9
9 9 10 9 8 7 7 7 7 7 8 8 8 8 8 8 8 8 9 10 10 2 3 3 4 5 5 6 7 11 5 8 14 7 7 9 13 10 7 11 13 14 14 14 13 13 14 16 17 17 17 18 19 18 19 18 18 15 16 16 15 15 16 17 15 14 13 13 13 12 10 9 8 8
10 11 11 10 9 7 6 6 7 8 9 9 9 9 8 9 8 8 8 10 10 5 2 2 4 3 3 3 7 9 6 9 6 5 7 10 9 8 6 7 15 14 14 13 13 13 13 14 15 16 15 14 14 15 16 16 14 16 17 16 15 15 16 17 16 15 14 13 13 12 11 10 9 9
9 9 11 11 9 8 9 7 8 8 8 8 8 9 8 8 9 8 8 9 9 10 4 4 2 3 5 5 5 8 6 4 7 7 8 8 8 9 7 6 7 14 12 12 11 11 11 11 12 13 14 13 13 14 14 14 16 17 17 16 15 15 15 15 16 15 14 14 13 12 11 10 9 10
9 10 10 11 10 8 8 8 6 7 8 8 8 9 8 9 9 9 9 8 9 10 7 5 5 4 4 5 6 8 6 8 7 10 10 9 8 8 8 7 5 9 12 12 12 11 11 10 9 10 13 13 15 15 15 15 17 17 16 16 15 15 14 15 16 16 14 14 13 12 11 10 10 10
9 10 11 11 11 9 9 9 7 7 8 8 8 8 8 8 9 8 9 10 8 8 8 5 5 5 5 4 4 6 1 2 9 9 8 9 10 10 8 8 7 6 10 10 11 10 10 9 8 10 13 15 15 16 16 16 17 17 17 16 15 15 14 14 14 14 14 12 13 12 10 11 11 11
10 10 10 10 11 11 11 9 8 6 8 8 8 8 8 8 8 8 8 10 8 8 8 4 3 4 3 4 3 3 6 6 6 6 9 10 10 10 9 7 7 10 10 8 8 9 8 8 8 10 13 15 16 17 17 17 17 17 17 17 16 15 15 14 13 13 13 12 10 12 11 10 10 11
10 10 11 10 9 10 9 9 8 8 8 8 8 8 8 7 7 8 8 6 6 6 7 7 2 3 6 4 5 7 7 10 8 8 9 8 10 11 9 7 6 5 5 4 4 5 5 6 7 10 13 15 17 17 17 17 17 17 17 17 16 15 14 14 13 13 13 13 14 13 11 10 9 10
9 10 10 10 10 10 11 11 10 9 7 6 8 8 8 8 7 8 8 8 7 8 8 6 5 4 4 8 8 6 6 7 7 11 9 7 8 9 11 9 6 6 6 6 7 6 5 5 6 8 12 14 16 16 16 17 17 16 17 17 16 15 14 13 13 14 15 15 14 13 11 10 9 9
9 9 9 10 10 10 10 10 9 9 9 6 7 7 7 7 8 8 7 8 8 6 7 6 7 5 6 4 2 6 7 7 5 7 9 10 10 8 8 10 11 8 7 6 5 7 6 6 7 8 10 14 15 16 16 17 16 16 16 16 16 15 14 14 14 15 15 15 14 13 12 10 9 9
10 10 9 9 9 10 13 16 15 15 13 7 7 5 7 8 9 8 6 3 4 7 7 7 6 5 5 7 6 8 11 11 13 11 7 8 8 9 8 7 8 9 10 7 7 6 5 5 5 5 5 6 13 14 15 13 17 17 16 17 16 15 15 15 15 15 15 15 15 14 13 11 10 10
10 10 9 9 13 15 16 16 16 18 20 18 9 7 6 8 8 7 7 7 8 7 7 7 7 8 8 8 10 9 11 9 7 10 7 11 9 9 8 7 6 8 9 9 8 7 7 7 5 5 5 6 8 7 9 9 11 15 16 17 16 16 16 16 15 16 15 15 15 14 13 12 11 11
11 11 10 8 10 12 13 15 18 17 20 23 17 14 11 10 9 8 8 8 9 8 9 8 8 8 9 9 10 9 8 8 10 11 9 11 12 11 13 11 7 7 10 9 8 7 7 8 8 6 6 6 7 7 8 13 15 16 17 17 16 16 17 16 16 15 15 15 14 14 14 13 12 11
10 10 10 8 8 8 9 9 8 10 15 21 24 17 13 13 14 13 10 9 8 8 8 8 9 10 10 11 11 9 9 9 9 9 9 12 13 12 11 11 12 10 11 10 9 8 7 7 7 7 7 7 6 8 10 15 16 17 17 16 17 18 17 17 16 15 15 15 14 14 13 13 12 12
12 10 10 10 9 8 14 12 11 12 12 14 18 22 18 15 15 15 15 14 11 9 10 10 9 10 9 9 8 9 12 10 12 11 9 9 11 11 11 10 9 11 11 9 9 9 9 8 8 7 8 8 7 8 13 17 16 17 17 16 15 16 17 17 16 16 15 15 14 14 13 13 12 11
13 12 12 11 10 9 9 8 9 10 11 12 11 10 11 11 14 15 15 16 16 12 9 8 9 9 8 9 10 13 9 12 12 14 13 12 12 12 11 10 10 11 11 12 9 8 9 8 8 7 8 9 8 8 13 18 17 17 17 16 15 16 16 16 16 15 15 15 14 14 13 12 12 11
14 13 13 12 12 11 11 10 10 8 9 11 11 10 10 11 12 11 11 11 10 9 7 8 9 8 8 11 10 10 12 15 15 15 17 16 12 9 7 9 10 10 10 9 9 9 9 8 8 7 8 8 7 7 14 19 18 17 16 16 16 16 15 15 16 15 15 15 14 14 13 13 12 11
14 14 14 14 13 13 13 14 14 12 11 12 12 12 9 9 10 10 11 15 14 12 11 11 11 9 8 9 9 10 12 13 12 10 6 5 12 12 11 10 10 10 10 10 8 7 9 9 8 7 8 8 6 6 8 16 19 17 17 17 16 15 16 15 15 15 15 14 14 14 13 13 12 11
15 14 14 14 14 14 14 15 15 15 12 12 13 12 12 10 8 8 8 14 17 17 16 16 16 13 11 13 13 14 19 15 11 8 8 8 9 12 11 10 11 10 11 9 8 8 9 9 7 8 8 8 7 6 6 6 13 17 17 16 16 15 15 16 15 14 14 14 14 14 14 13 12 12
14 16 27 24 17 16 15 18 17 16 14 13 14 15 12 12 10 7 7 5 9 16 17 15 13 14 13 13 15 19 17 14 12 11 13 10 8 11 10 12 11 9 11 10 8 9 9 10 6 9 7 7 4 6 6 6 7 9 11 15 16 14 15 16 14 14 14 14 14 14 14 13 12 9
14 14 17 26 23 19 17 19 17 17 16 13 12 14 14 13 12 9 5 6 7 8 8 6 7 6 10 11 9 11 13 13 9 11 13 13 12 11 10 11 10 9 8 11 10 8 9 11 8 11 8 4 4 4 7 6 6 7 6 7 9 12 13 15 15 14 15 14 13 13 14 14 11 6
15 15 15 17 22 24 23 20 18 17 18 14 12 12 14 14 15 9 6 7 7 7 9 9 10 11 11 12 11 11 9 9 10 12 10 13 13 11 11 12 12 12 10 11 14 7 9 10 10 10 10 10 6 5 5 6 6 6 7 7 7 8 8 11 12 15 14 13 14 14 14 15 12 7
17 16 15 14 19 22 22 23 23 17 17 18 13 12 13 13 12 10 8 7 11 9 9 10 10 9 9 9 9 7 7 7 8 9 8 10 14 12 12 12 11 9 8 12 18 7 9 10 11 10 8 5 7 8 6 6 6 6 8 8 8 6 6 5 5 6 8 12 14 15 14 15 15 9
15 17 17 14 17 21 21 23 24 23 19 18 12 13 13 14 15 12 9 7 6 7 9 8 9 9 9 9 9 9 8 9 9 9 9 8 10 9 10 13 13 10 9 14 20 11 9 10 12 11 8 8 6 8 8 7 6 6 7 8 8 7 8 7 6 6 6 5 6 8 11 15 15 15
16 15 15 15 19 19 21 21 23 23 23 20 16 18 17 17 18 10 7 9 8 7 8 9 9 9 9 10 10 10 10 9 10 9 9 8 10 11 5 3 8 7 9 13 16 12 8 8 11 12 10 10 11 8 8 8 8 8 8 8 8 9 8 7 8 7 7 7 6 10 9 10 13 14
15 15 15 15 18 18 19 20 21 23 24 19 20 19 21 24 20 12 10 7 7 7 7 8 9 8 9 10 9 10 10 10 10 11 10 12 7 5 5 5 4 2 11 14 16 14 8 9 10 10 11 13 12 12 10 5 7 10 10 9 8 9 9 8 8 7 7 7 7 7 6 7 7 8
15 17 20 18 18 17 18 18 19 20 24 26 21 23 24 22 15 13 11 10 7 8 9 8 8 9 9 11 12 10 11 10 10 10 8 7 4 2 2 7 2 1 7 10 14 14 7 9 12 11 10 11 10 9 10 11 11 10 11 12 10 10 11 10 8 9 8 8 8 8 9 8 7 7
21 19 19 20 18 17 13 8 10 12 13 20 23 24 23 16 16 14 13 11 10 9 7 7 7 7 6 7 8 9 10 10 10 10 10 8 8 8 6 7 6 0 5 8 13 15 7 9 12 12 10 10 10 11 10 12 10 10 11 11 8 7 9 10 9 9 9 10 9 9 7 8 8 8
16 19 17 14 16 15 15 12 12 12 14 14 14 13 14 14 14 14 13 12 11 9 7 7 7 7 8 9 10 9 10 10 11 11 10 10 8 9 8 9 7 6 5 3 5 8 7 8 12 12 10 10 10 11 11 11 11 11 10 10 12 12 12 12 10 10 10 9 9 7 7 8 8 9
15 15 15 15 12 14 13 8 5 6 7 9 10 11 12 12 14 16 18 15 10 9 9 7 7 7 8 10 11 10 9 10 10 11 11 10 10 8 9 9 8 6 4 4 8 7 5 8 11 11 8 10 11 10 11 11 12 12 12 11 10 5 10 13 12 10 10 9 9 10 9 9 10 9
14 13 14 14 14 14 14 12 11 10 9 9 9 11 10 12 13 12 11 12 12 10 9 10 10 9 8 9 11 12 10 10 9 10 10 10 11 9 9 11 11 9 9 8 9 6 2 5 10 11 7 5 10 13 12 9 9 11 12 11 10 8 10 10 11 10 11 10 9 9 9 9 9 10
13 14 14 15 15 15 14 14 13 12 10 9 10 10 13 13 13 13 12 10 10 10 11 10 10 9 9 7 6 9 10 9 9 10 11 11 11 10 10 10 10 10 10 10 10 10 6 4 9 8 5 3 5 10 12 12 11 11 10 11 10 9 10 11 10 11 12 12 11 10 9 9 9 9
14 14 15 15 15 14 13 13 13 11 11 11 10 11 12 12 13 13 12 11 10 10 10 10 10 7 10 12 10 10 11 11 12 11 9 8 11 11 11 10 10 10 10 10 11 10 9 6 9 9 5 5 5 2 3 6 13 11 10 9 10 9 11 11 11 11 12 9 8 8 8 7 8 9
16 14 14 15 15 13 13 12 12 11 12 11 12 10 10 11 11 12 12 11 11 10 10 10 10 9 9 9 10 11 11 10 11 12 12 11 11 10 10 11 11 11 10 10 11 11 11 7 10 11 11 8 8 7 5 4 6 13 12 10 9 9 10 11 10 11 11 10 10 9 8 10 9 9
15 14 14 14 14 13 12 11 11 11 11 12 12 10 9 10 10 10 11 11 10 11 11 11 10 10 11 10 10 9 10 11 9 10 11 11 11 11 11 10 11 11 11 10 10 11 11 9 9 11 11 10 10 9 5 3 3 1 12 11 9 8 11 10 10 10 10 10 10 9 8 7 7 8
13 15 14 13 13 13 11 10 10 11 12 12 10 9 9 9 9 11 10 10 11 10 11 11 10 9 10 13 11 11 10 10 10 10 9 10 11 11 12 11 11 11 11 11 11 11 11 10 10 10 11 12 11 10 8 2 4 3 4 11 9 8 10 11 10 10 9 8 9 9 6 6 7 8
12 14 13 12 11 11 10 10 10 11 11 10 9 9 9 9 9 10 10 10 10 10 10 10 10 11 9 10 12 10 10 10 12 11 12 11 12 12 12 11 10 10 11 11 10 10 10 10 11 11 11 11 12 10 8 8 5 5 2 3 9 9 9 11 10 8 9 8 7 5 6 2 2 3
10 11 10 10 9 9 9 9 10 12 12 9 9 8 8 8 8 8 9 10 10 10 10 10 11 10 12 11 11 11 11 13 12 12 12 11 12 12 12 12 12 11 11 13 13 12 11 11 12 11 10 7 6 6 8 7 4 3 5 2 3 6 9 8 8 9 8 7 6 7 6 2 3 2
10 9 8 7 7 8 9 11 12 12 9 8 8 7 8 8 8 8 8 9 7 10 10 10 10 12 12 12 12 11 12 12 12 12 12 13 12 11 12 11 10 10 11 12 13 12 12 10 8 13 11 9 9 9 10 6 6 5 6 5 6 4 9 8 9 9 7 6 7 6 5 4 1 2
3 4 7 8 8 9 10 11 11 8 6 7 7 7 8 7 8 9 9 11 10 9 10 10 12 13 13 12 13 10 10 12 11 11 11 12 11 10 11 10 11 10 10 11 12 11 6 7 11 11 10 10 9 9 6 8 7 5 6 3 5 6 8 8 10 8 8 8 7 3 3 2 2 1
8 7 5 4 4 5 7 9 7 6 6 6 6 6 7 8 8 9 8 9 10 9 10 11 10 13 13 11 12 13 12 11 12 12 12 12 12 12 11 10 11 11 11 9 7 7 7 8 7 8 8 8 7 8 8 7 8 8 5 4 6 4 2 7 8 9 8 7 7 6 4 4 5 2
7 6 5 5 4 4 5 5 1 4 6 6 7 7 7 8 9 9 9 9 9 9 9 11 10 10 11 12 10 11 12 12 12 13 13 11 11 11 12 11 10 11 10 8 8 7 7 9 9 9 10 9 8 9 9 8 8 6 7 5 4 6 4 1 3 5 5 2 2 7 8 8 3 4
7 7 7 6 5 5 6 5 5 4 2 5 7 8 9 9 9 9 9 9 10 11 11 10 12 12 10 11 11 11 11 11 12 10 11 11 10 10 10 11 10 11 11 10 11 9 9 8 8 8 8 7 8 8 9 9 8 7 6 8 7 6 5 4 4 4 2 1 6 9 9 9 9 6
Wind_Direction
266 258 239 235 233 227 217 203 202 220 235 235 227 212 217 228 245 252 251 240 233 206 186 189 165 190 230 226 213 190 182 177 168 174 183 164 168 180 180 180 181 182 184 192 186 179 171 180 183 186 187 187 157 159 162 163 162 159 161 159 157 153 144 150 148 144 146 144 143 137 125 116 112 106
272 263 267 243 231 221 217 217 210 210 219 223 222 222 219 209 227 239 248 258 200 212 181 174 165 161 214 267 242 190 176 171 166 170 172 160 165 171 178 180 179 178 181 184 184 174 176 182 182 184 191 176 158 163 168 168 165 163 161 156 151 143 146 150 149 150 152 148 145 141 135 123 120 114
268 264 260 255 245 227 220 213 214 218 222 223 219 220 213 214 215 234 245 259 237 177 211 184 180 167 186 256 311 263 177 174 168 174 162 155 152 161 173 173 174 166 162 180 174 166 176 182 182 185 189 166 165 168 172 170 166 166 154 146 146 146 148 149 150 154 155 150 146 147 144 132 131 126
276 274 269 262 254 236 226 216 201 217 223 225 228 228 223 220 215 222 241 245 256 231 203 154 175 177 157 174 204 248 190 177 178 173 153 143 139 153 158 168 157 152 159 155 150 161 177 183 182 184 188 177 172 174 172 171 167 154 142 145 147 148 148 149 153 158 157 152 150 150 144 134 135 135
283 281 279 275 273 269 247 210 210 215 218 222 231 224 227 238 226 218 229 244 256 259 201 186 191 152 117 135 183 243 225 171 205 150 119 132 145 142 144 146 142 145 146 147 155 167 178 182 180 180 185 182 171 170 168 166 151 142 146 148 149 147 149 151 155 160 157 154 153 150 146 143 142 138
274 280 281 279 272 263 262 242 210 209 216 212 219 223 221 227 230 209 217 230 238 250 186 201 168 168 141 125 149 207 246 155 167 134 133 141 140 139 125 116 116 132 133 138 148 159 167 165 173 181 183 178 159 160 161 153 145 148 149 149 149 149 152 154 156 160 159 157 155 153 150 147 143 136
261 267 274 277 276 272 269 264 234 213 220 213 217 220 210 221 225 222 215 222 232 239 233 186 193 174 150 146 161 190 236 171 153 142 144 147 141 128 121 116 98 119 126 130 134 137 137 140 151 161 162 154 155 155 154 151 148 149 150 150 150 151 151 153 159 160 160 158 158 157 153 144 138 137
253 259 266 275 283 279 270 265 255 225 220 217 217 220 214 217 220 216 213 214 225 235 239 201 180 159 147 114 160 202 144 248 172 159 152 147 144 137 114 112 115 103 116 127 130 130 132 139 150 150 149 151 154 154 154 154 151 151 151 150 150 152 152 155 159 160 159 157 161 159 142 139 144 145
264 263 262 262 267 274 273 269 264 243 212 219 224 221 220 219 221 226 226 226 222 235 243 226 170 134 111 91 139 178 167 214 201 156 159 164 149 115 109 103 97 99 98 104 119 123 131 141 146 153 154 154 156 156 156 155 153 153 153 151 150 152 154 156 157 154 146 151 144 124 130 142 147 146
247 258 261 264 264 270 273 272 272 266 233 220 223 223 222 217 215 223 228 226 230 219 234 236 195 125 129 154 202 176 169 195 174 186 173 160 121 124 116 112 129 137 135 135 109 109 116 120 137 155 158 157 157 157 156 156 155 156 155 152 150 153 155 156 153 145 138 131 130 133 138 146 150 147
243 249 256 259 260 260 267 273 276 278 269 234 227 217 220 213 211 221 226 213 216 217 217 219 210 154 136 171 192 161 178 209 185 158 172 141 129 131 139 139 146 149 133 115 141 149 141 133 137 151 156 156 156 155 156 156 157 159 157 153 152 153 155 152 144 138 136 137 136 139 144 147 149 146
243 243 249 255 264 270 272 275 278 278 275 256 229 218 210 206 209 222 225 221 211 213 223 214 198 175 146 165 85 132 168 192 204 180 173 150 150 145 148 155 153 151 131 132 115 115 107 92 98 121 146 156 157 156 157 158 158 161 159 155 153 152 151 147 144 142 142 143 144 145 147 150 149 146
261 252 249 248 248 257 266 269 275 276 279 296 297 248 209 198 211 215 215 179 236 226 210 212 203 173 165 178 178 184 184 191 189 178 162 138 145 140 143 159 160 148 146 139 137 150 156 139 147 140 137 158 161 161 161 164 163 163 161 157 154 151 150 149 148 148 148 149 149 150 151 151 149 147
279 265 250 248 252 255 260 263 264 272 279 278 267 261 240 220 195 210 210 207 213 219 210 200 201 172 187 180 187 199 191 181 160 163 157 145 146 138 143 150 165 159 151 148 157 167 164 153 152 155 145 156 163 162 165 170 167 164 161 159 157 154 153 153 153 153 154 154 154 155 155 153 152 149
272 272 268 260 253 255 260 266 266 260 269 275 269 266 255 215 199 195 202 206 206 201 215 207 196 185 179 184 188 198 178 177 173 181 159 147 152 158 156 165 163 180 163 154 156 165 169 159 156 166 157 159 168 166 173 164 164 164 163 162 160 158 156 157 158 157 157 157 158 159 159 157 155 153
266 262 262 262 258 251 249 258 271 259 250 256 262 255 246 225 206 197 193 199 203 203 211 212 202 191 196 185 180 184 178 178 181 180 167 163 160 162 167 165 176 173 168 156 160 163 169 168 161 163 162 169 174 174 161 163 166 167 167 167 165 161 160 161 161 160 159 159 160 161 161 160 158 157
262 263 259 258 258 258 256 258 265 269 272 273 261 252 240 227 217 216 208 202 202 195 206 215 211 203 203 195 180 172 187 181 171 178 174 173 170 168 169 167 158 166 168 157 159 166 172 172 170 170 160 166 175 163 160 167 170 169 167 169 170 164 162 163 163 162 161 161 162 163 163 162 161 160
256 254 255 252 252 252 254 253 255 267 276 271 266 254 242 235 233 223 215 215 212 203 205 202 212 212 196 198 182 186 181 176 181 179 187 176 176 172 172 162 159 160 169 170 154 153 172 178 169 178 159 166 170 162 166 169 171 172 171 169 170 167 165 165 164 164 163 162 162 164 163 162 162 161
250 251 251 250 248 248 249 244 242 251 262 270 271 256 233 233 231 224 216 216 215 211 204 199 214 217 200 206 195 177 171 193 193 186 183 180 163 155 137 143 148 159 174 166 161 165 166 178 171 179 153 163 160 151 166 169 171 172 170 169 171 168 167 167 165 165 164 163 163 163 163 162 162 163
246 246 247 247 245 245 247 245 234 236 250 266 272 285 283 245 228 225 215 212 209 208 206 209 212 218 223 218 196 173 184 205 197 194 148 139 156 163 160 155 152 163 183 184 168 150 168 180 172 156 145 135 116 140 158 174 170 171 169 169 171 170 166 167 167 166 165 165 164 162 162 161 161 162
244 240 240 242 244 241 243 240 228 224 229 255 266 267 271 272 251 227 218 208 206 211 212 208 207 205 204 212 205 205 196 195 189 149 160 197 181 164 157 149 160 170 178 196 177 151 161 181 167 139 140 127 131 139 148 160 173 169 169 168 169 172 168 166 167 167 167 166 164 164 162 161 160 157
243 241 242 243 240 240 237 234 227 216 215 236 253 265 263 267 263 244 214 191 206 212 215 213 207 206 193 197 205 208 218 194 174 163 176 183 194 174 163 157 168 162 181 193 177 149 170 175 153 130 107 97 112 131 132 140 155 166 168 167 167 171 171 165 168 166 169 169 167 165 162 160 153 151
249 244 241 242 242 239 235 232 225 212 209 224 231 249 261 258 259 249 218 220 197 183 198 192 192 212 203 201 199 217 198 207 183 191 187 164 179 180 161 155 150 157 192 196 189 154 165 173 156 138 130 128 128 114 132 134 143 162 162 167 171 174 175 168 167 170 172 171 167 165 162 160 155 163
246 246 240 236 232 234 237 237 228 215 205 214 223 227 241 253 250 253 247 208 198 193 185 189 198 200 197 199 207 209 204 196 193 204 195 170 187 186 160 164 169 172 176 189 191 168 166 173 151 157 153 144 153 142 132 141 156 164 161 158 166 177 180 169 169 174 171 169 169 168 168 168 171 170
241 241 240 235 230 224 224 228 233 225 215 210 215 223 234 237 247 254 249 238 193 199 188 189 194 201 195 201 201 205 189 188 189 211 219 199 194 190 167 164 176 175 173 181 185 173 166 175 152 153 152 128 119 132 153 149 161 167 171 170 165 156 160 171 159 165 172 175 173 174 177 179 189 192
237 230 231 234 228 223 215 218 224 222 215 212 209 222 236 252 249 239 243 247 221 200 195 188 190 196 196 196 192 189 197 197 185 200 210 214 199 226 175 168 170 176 172 180 180 181 161 179 158 157 151 129 136 132 138 158 166 172 167 177 171 155 169 163 162 162 165 173 183 185 188 192 199 212
234 235 232 234 232 219 215 218 220 219 216 217 219 221 233 244 255 265 257 241 224 222 209 194 193 193 195 200 195 182 192 202 190 187 198 216 198 207 179 170 177 179 163 167 179 183 172 166 157 162 154 136 136 140 146 150 166 166 171 180 167 170 177 171 171 169 168 173 181 184 190 201 213 221
226 230 231 233 234 224 219 215 214 214 216 217 216 215 221 234 242 247 255 242 224 213 210 200 200 198 192 196 197 189 192 190 190 188 188 199 223 225 117 104 39 98 155 171 179 182 178 156 157 159 147 147 149 159 159 149 145 163 168 172 170 174 182 179 174 165 174 175 176 170 179 198 214 219
226 224 228 232 235 232 226 214 209 211 211 209 208 212 217 222 232 234 238 238 221 213 212 212 205 202 202 197 199 188 188 185 180 184 190 181 192 222 151 104 75 344 161 169 172 188 181 156 158 155 144 150 151 156 155 160 156 167 168 161 175 182 185 185 180 177 175 182 183 179 192 194 194 199
223 223 223 224 232 241 235 203 206 209 212 208 210 212 212 216 222 227 229 229 223 211 203 213 217 209 198 192 199 191 179 176 182 178 178 159 166 163 155 122 124 40 230 171 174 184 178 160 157 161 147 155 156 155 152 143 161 166 165 172 160 144 183 186 188 182 179 186 188 187 194 195 201 181
222 223 220 216 219 228 223 200 197 217 210 202 211 219 215 214 216 221 224 223 218 210 203 212 216 213 204 184 194 194 175 174 177 177 168 169 169 165 165 142 144 140 224 137 163 206 174 159 161 166 156 158 160 156 150 151 153 163 168 169 160 174 179 184 191 191 186 186 185 187 184 196 204 199
211 215 218 221 223 225 231 216 209 208 218 212 201 206 208 211 213 217 222 225 224 216 211 218 218 215 205 197 188 180 174 180 177 166 167 168 165 170 152 153 156 142 180 165 180 225 206 159 165 173 174 162 158 147 145 158 162 163 168 174 175 161 155 177 183 187 180 176 185 198 195 192 201 203
201 206 212 216 217 218 219 223 224 225 220 218 208 199 199 202 206 210 209 212 215 210 204 212 214 215 203 204 184 174 174 177 175 165 165 168 166 172 166 161 162 160 169 177 189 225 280 175 166 175 179 166 146 148 150 154 164 165 169 169 170 165 168 178 177 175 163 176 191 192 196 194 198 203
194 195 201 207 211 211 211 215 219 220 222 219 206 198 194 195 198 201 202 205 206 202 204 204 211 209 201 205 179 170 177 170 174 176 177 167 166 170 177 161 162 166 164 168 174 191 230 212 157 170 166 137 119 154 161 158 161 170 173 169 171 166 168 173 177 173 174 183 179 183 195 198 197 197
193 190 194 201 206 206 205 210 215 217 221 222 216 195 188 191 191 189 194 199 197 195 196 201 206 196 192 192 177 186 184 175 171 173 183 170 168 174 176 165 161 164 164 163 173 183 186 201 159 160 138 127 127 78 45 152 159 165 166 174 176 162 164 174 171 173 174 181 184 187 190 197 202 201
188 192 191 194 200 198 200 204 209 214 219 222 221 203 177 183 181 182 191 192 191 191 193 197 200 191 186 196 184 179 178 175 169 168 178 172 173 177 175 174 165 167 167 166 168 174 186 181 167 163 169 169 170 171 172 336 140 161 161 170 180 164 162 167 171 167 171 180 188 185 188 193 202 194
186 190 190 192 193 193 196 200 206 214 217 219 218 205 180 176 180 184 187 179 189 191 193 192 194 190 188 191 187 181 177 176 187 176 169 171 169 172 173 175 169 164 164 170 169 176 184 181 178 167 167 172 178 184 168 147 31 50 156 161 173 165 158 161 162 171 180 179 184 194 195 190 196 196
187 184 188 191 190 190 195 202 207 214 218 219 214 202 186 176 174 186 182 183 191 191 189 190 191 188 189 183 181 183 176 171 166 170 175 173 174 176 175 169 169 164 162 165 174 180 193 181 181 170 171 176 177 173 174 196 129 158 158 154 156 154 155 156 163 172 174 184 190 197 189 203 209 198
188 184 179 185 183 186 192 201 208 214 222 213 205 199 189 182 175 178 177 183 186 190 187 187 189 187 191 184 178 180 172 170 169 172 176 183 178 177 173 171 165 165 159 165 175 191 187 180 179 179 183 182 184 181 164 153 151 161 153 113 140 141 161 162 162 155 164 174 190 184 209 186 88 350
184 175 177 174 175 184 193 199 211 216 219 204 198 193 185 184 182 173 171 181 184 186 185 187 185 180 188 179 173 179 168 175 180 170 172 177 177 172 171 171 168 161 164 167 175 185 185 183 181 181 178 163 146 120 129 128 116 133 148 84 76 155 158 155 151 148 157 165 159 171 193 165 201 124
172 172 173 177 182 196 201 208 208 216 207 186 186 188 189 186 184 183 178 177 183 183 187 187 185 183 182 175 173 170 168 168 173 171 169 170 167 168 163 157 159 164 163 171 174 178 182 182 151 126 118 117 115 103 91 102 130 162 157 162 58 49 162 162 153 154 149 149 143 154 175 171 130 105
74 147 177 185 214 215 207 214 211 197 181 174 179 186 197 193 194 178 174 176 180 185 187 186 186 183 180 175 173 168 167 165 166 167 165 163 164 157 151 154 160 167 168 169 177 176 148 114 125 122 127 123 118 116 143 152 149 157 173 156 121 35 61 102 138 139 143 154 146 138 130 110 93 139
41 32 21 357 322 290 245 210 190 174 177 177 187 188 192 193 190 185 185 184 183 183 191 186 185 178 172 167 166 169 170 173 167 165 165 164 164 162 161 165 166 168 171 167 151 131 131 136 128 136 130 121 128 132 147 161 147 145 134 123 132 135 22 13 54 80 82 101 114 132 138 156 126 200
44 31 19 9 357 319 328 348 304 199 178 185 186 193 192 195 195 189 186 184 185 183 190 185 172 171 167 164 172 173 170 167 164 160 161 161 160 163 163 165 162 163 161 147 152 153 148 149 158 151 149 156 151 141 150 143 151 155 145 128 112 131 148 83 58 45 51 13 158 150 130 135 144 212
39 36 29 15 11 6 13 13 19 339 256 198 197 199 199 195 198 191 185 182 181 182 183 180 170 173 164 162 164 175 171 160 157 156 154 153 155 155 160 156 150 155 162 164 160 161 157 152 150 155 154 149 145 149 147 148 148 143 140 131 137 135 142 133 115 125 146 187 230 174 165 155 127 109